• In Italy
  • List of Countries
  • For 7 days
  • Water Temperature
  • Satellite Maps
  • Weather Map
  • Weather Widgets
  • user-avatar
    Login

    Hourly Weather Lewis

    Today, 18 January, Thursday

    Time Temperature Precipitation Wind Pressure Humidity
    00:00 0°C° 0.1 mm 7 mps 732 mmHg 68%
    01:00 0°C° 0.2 mm 7 mps 732 mmHg 69%
    02:00 0°C° 0.2 mm 7 mps 732 mmHg 70%
    03:00 0°C° 0.2 mm 7 mps 732 mmHg 71%
    04:00 0°C° 0.2 mm 7 mps 732 mmHg 69%
    05:00 0°C° 0.2 mm 8 mps 732 mmHg 68%
    06:00 0°C° 0.2 mm 8 mps 732 mmHg 67%
    07:00 0°C° 0.2 mm 8 mps 733 mmHg 66%
    08:00 0°C° 0.2 mm 8 mps 733 mmHg 66%
    09:00 0°C° 0.2 mm 8 mps 734 mmHg 66%
    10:00 0°C° 0.2 mm 7 mps 734 mmHg 66%
    11:00 0°C° 0.2 mm 7 mps 734 mmHg 66%
    12:00 0°C° 0.2 mm 7 mps 735 mmHg 66%
    13:00 0°C° 0.3 mm 7 mps 735 mmHg 66%
    14:00 0°C° 0.3 mm 7 mps 735 mmHg 67%
    15:00 0°C° 0.3 mm 8 mps 735 mmHg 67%
    16:00 0°C° 0.3 mm 8 mps 735 mmHg 67%
    17:00 0°C° 0.3 mm 8 mps 736 mmHg 66%
    18:00 0°C° 0.3 mm 8 mps 736 mmHg 66%
    19:00 0°C° 0.3 mm 8 mps 736 mmHg 65%
    20:00 0°C° 0.3 mm 8 mps 736 mmHg 65%
    21:00 0°C° 0.3 mm 9 mps 736 mmHg 64%
    22:00 0°C° 0.3 mm 9 mps 735 mmHg 64%
    23:00 0°C° 0.3 mm 9 mps 735 mmHg 63%

    Tomorrow, 19 January, Friday

    Time Temperature Precipitation Wind Pressure Humidity
    00:00 0°C° 0.3 mm 9 mps 735 mmHg 63%
    01:00 -1°C° 0.3 mm 9 mps 735 mmHg 63%
    02:00 -1°C° 0.3 mm 9 mps 735 mmHg 63%
    03:00 -1°C° 0.3 mm 8 mps 735 mmHg 63%
    04:00 0°C° 0.3 mm 8 mps 734 mmHg 60%
    05:00 0°C° 0.3 mm 8 mps 734 mmHg 57%
    06:00 0°C° 0.3 mm 8 mps 734 mmHg 54%
    07:00 0°C° 0.3 mm 7 mps 734 mmHg 57%
    08:00 0°C° 0.3 mm 7 mps 734 mmHg 61%
    09:00 -1°C° 0.3 mm 6 mps 734 mmHg 64%
    10:00 +1°C° 0.3 mm 6 mps 734 mmHg 64%
    11:00 +1°C° 0.3 mm 6 mps 735 mmHg 64%
    12:00 +1°C° 0.3 mm 5 mps 735 mmHg 63%
    13:00 +1°C° 0.3 mm 6 mps 735 mmHg 63%
    14:00 0°C° 0.3 mm 7 mps 735 mmHg 62%
    15:00 0°C° 0.3 mm 8 mps 735 mmHg 62%
    16:00 0°C° 0.3 mm 8 mps 736 mmHg 62%
    17:00 0°C° 0.3 mm 8 mps 736 mmHg 62%
    18:00 0°C° 0.3 mm 8 mps 736 mmHg 63%
    19:00 +1°C° 0.3 mm 8 mps 736 mmHg 62%
    20:00 +1°C° 0.3 mm 8 mps 737 mmHg 61%
    21:00 +1°C° 0.3 mm 8 mps 737 mmHg 60%
    22:00 +1°C° 0.2 mm 9 mps 737 mmHg 61%
    23:00 +1°C° 0.2 mm 9 mps 738 mmHg 61%

    Day after tomorrow, 20 January, Saturday

    Time Temperature Precipitation Wind Pressure Humidity
    00:00 0°C° 0.2 mm 9 mps 738 mmHg 62%
    01:00 0°C° 0.2 mm 8 mps 739 mmHg 62%
    02:00 0°C° 0.2 mm 8 mps 739 mmHg 62%
    03:00 0°C° 0.2 mm 7 mps 740 mmHg 62%
    04:00 0°C° 0.1 mm 7 mps 740 mmHg 62%
    05:00 0°C° 0.1 mm 7 mps 741 mmHg 63%
    06:00 0°C° 0.1 mm 7 mps 742 mmHg 63%
    07:00 +1°C° 0 mm 6 mps 742 mmHg 63%
    08:00 +1°C° 0 mm 6 mps 743 mmHg 63%
    09:00 +1°C° 0 mm 5 mps 744 mmHg 62%
    10:00 +1°C° 0 mm 5 mps 744 mmHg 62%
    11:00 +1°C° 0 mm 4 mps 745 mmHg 62%
    12:00 +3°C° 0 mm 3 mps 745 mmHg 62%
    13:00 +3°C° 0 mm 2 mps 746 mmHg 62%
    14:00 +3°C° 0 mm 2 mps 746 mmHg 62%
    15:00 +4°C° 0 mm 1 mps 746 mmHg 61%
    16:00 +3°C° 0 mm 2 mps 746 mmHg 63%
    17:00 +3°C° 0 mm 2 mps 746 mmHg 64%
    18:00 +2°C° 0 mm 3 mps 746 mmHg 65%
    19:00 +1°C° 0 mm 5 mps 746 mmHg 67%
    20:00 +1°C° 0 mm 6 mps 746 mmHg 68%
    21:00 0°C° 0 mm 7 mps 746 mmHg 70%
    22:00 0°C° 0 mm 8 mps 745 mmHg 68%
    23:00 +1°C° 0 mm 10 mps 745 mmHg 67%

    21 January, Sunday

    Time Temperature Precipitation Wind Pressure Humidity
    00:00 +1°C° 0 mm 11 mps 744 mmHg 66%
    01:00 -1°C° 0.8 mm 12 mps 743 mmHg 73%
    02:00 -1°C° 0.8 mm 13 mps 741 mmHg 80%
    03:00 -2°C° 0.8 mm 14 mps 740 mmHg 87%
    04:00 -1°C° 1.6 mm 14 mps 739 mmHg 88%
    05:00 -1°C° 1.6 mm 13 mps 737 mmHg 90%
    06:00 0°C° 1.6 mm 13 mps 736 mmHg 91%
    07:00 +1°C° 1 mm 13 mps 735 mmHg 93%
    08:00 +4°C° 1 mm 12 mps 735 mmHg 95%
    09:00 +5°C° 1 mm 12 mps 734 mmHg 97%
    10:00 +6°C° 0.3 mm 11 mps 735 mmHg 93%
    11:00 +6°C° 0.3 mm 11 mps 736 mmHg 90%
    12:00 +6°C° 0.3 mm 11 mps 736 mmHg 86%
    13:00 +4°C° 0 mm 11 mps 737 mmHg 82%
    14:00 +4°C° 0 mm 11 mps 738 mmHg 78%
    15:00 +3°C° 0 mm 11 mps 739 mmHg 73%
    16:00 +3°C° 0.1 mm 11 mps 740 mmHg 73%
    17:00 +3°C° 0.1 mm 11 mps 741 mmHg 73%
    18:00 +3°C° 0.1 mm 10 mps 742 mmHg 73%
    19:00 +3°C° 0.1 mm 10 mps 742 mmHg 72%
    20:00 +3°C° 0.1 mm 10 mps 743 mmHg 72%
    21:00 +3°C° 0.1 mm 10 mps 743 mmHg 72%
    22:00 +3°C° 0 mm 9 mps 743 mmHg 73%
    23:00 +3°C° 0 mm 9 mps 744 mmHg 73%

    22 January, Monday

    Time Temperature Precipitation Wind Pressure Humidity
    00:00 +4°C° 0 mm 8 mps 744 mmHg 74%
    01:00 +4°C° 0 mm 8 mps 744 mmHg 74%
    02:00 +4°C° 0 mm 8 mps 744 mmHg 75%
    03:00 +4°C° 0 mm 8 mps 743 mmHg 76%
    04:00 +4°C° 0.1 mm 8 mps 743 mmHg 76%
    05:00 +4°C° 0.1 mm 8 mps 742 mmHg 77%
    06:00 +4°C° 0.1 mm 8 mps 742 mmHg 78%
    07:00 +4°C° 0.1 mm 8 mps 741 mmHg 80%
    08:00 +3°C° 0.1 mm 9 mps 741 mmHg 82%
    09:00 +3°C° 0.1 mm 9 mps 741 mmHg 84%
    10:00 +3°C° 0.1 mm 9 mps 740 mmHg 84%
    11:00 +3°C° 0.1 mm 9 mps 740 mmHg 84%
    12:00 +3°C° 0.1 mm 10 mps 739 mmHg 84%
    13:00 +3°C° 0 mm 10 mps 738 mmHg 84%
    14:00 +3°C° 0 mm 10 mps 738 mmHg 85%
    15:00 +3°C° 0 mm 11 mps 737 mmHg 85%
    16:00 +3°C° 0.7 mm 12 mps 736 mmHg 86%
    17:00 +3°C° 0.7 mm 13 mps 735 mmHg 88%
    18:00 +3°C° 0.7 mm 14 mps 734 mmHg 90%
    19:00 +4°C° 0.8 mm 13 mps 734 mmHg 86%
    20:00 +4°C° 0.8 mm 12 mps 734 mmHg 83%
    21:00 +4°C° 0.8 mm 11 mps 733 mmHg 79%
    22:00 +4°C° 0.1 mm 11 mps 734 mmHg 77%
    23:00 +4°C° 0.1 mm 11 mps 734 mmHg 76%

    23 January, Tuesday

    Time Temperature Precipitation Wind Pressure Humidity
    00:00 +4°C° 0.1 mm 11 mps 734 mmHg 74%
    01:00 +3°C° 0.2 mm 12 mps 735 mmHg 72%
    02:00 +3°C° 0.2 mm 12 mps 735 mmHg 70%
    03:00 +3°C° 0.2 mm 12 mps 735 mmHg 68%
    04:00 +3°C° 0.2 mm 13 mps 736 mmHg 67%
    05:00 +3°C° 0.2 mm 13 mps 736 mmHg 66%
    06:00 +3°C° 0.2 mm 14 mps 736 mmHg 65%
    07:00 +3°C° 0.2 mm 13 mps 737 mmHg 66%
    08:00 +3°C° 0.2 mm 13 mps 737 mmHg 67%
    09:00 +3°C° 0.2 mm 13 mps 738 mmHg 68%
    10:00 +3°C° 0.6 mm 13 mps 738 mmHg 73%
    11:00 +3°C° 0.6 mm 13 mps 738 mmHg 79%
    12:00 +3°C° 0.6 mm 12 mps 738 mmHg 84%
    13:00 +4°C° 0.4 mm 12 mps 739 mmHg 80%
    14:00 +4°C° 0.4 mm 12 mps 739 mmHg 75%
    15:00 +4°C° 0.4 mm 12 mps 740 mmHg 71%
    16:00 +4°C° 0 mm 11 mps 740 mmHg 75%
    17:00 +5°C° 0 mm 10 mps 740 mmHg 79%
    18:00 +5°C° 0 mm 9 mps 739 mmHg 83%
    19:00 +6°C° 2.3 mm 11 mps 738 mmHg 85%
    20:00 +5°C° 2.3 mm 14 mps 737 mmHg 86%
    21:00 +5°C° 2.3 mm 16 mps 735 mmHg 87%
    22:00 +6°C° 0.8 mm 17 mps 734 mmHg 86%
    23:00 +6°C° 0.8 mm 17 mps 733 mmHg 85%
    Show more